GW3210 Weather Reports


time (UTC)temp
C
wind
direction
speed
KPH
gust
KPH
rain 1hr
cm
rain 24hr
cm
rain mn
cm
humidity
%
barometer
mb
20260905174616 16 293 3.2 4.8 0.00 0.13 0.00 66 1019.4
20260905173615 15 270 3.2 4.8 0.00 0.13 0.00 69 1019.4
20260905172616 15 315 1.6 3.2 0.00 0.13 0.00 68 1019.4
20260905171615 15 315 1.6 3.2 0.00 0.13 0.00 70 1019.4
20260905170635 15 0 1.6 3.2 0.00 0.13 0.00 70 1019.3
20260905165616 14 293 1.6 1.6 0.00 0.13 0.00 70 1019.3
20260905164616 14 315 4.8 6.4 0.00 0.13 0.00 71 1019.3
20260905163616 13 0.0 1.6 0.00 0.13 0.00 71 1019.3
20260905162615 13 113 4.8 6.4 0.00 0.13 0.00 70 1019.2
20260905161615 13 270 1.6 4.8 0.00 0.13 0.00 72 1019.4
20260905160615 13 180 1.6 1.6 0.00 0.13 0.00 73 1019.3
20260905155616 13 180 1.6 1.6 0.00 0.13 0.00 77 1019.4
20260905154616 12 0.0 1.6 0.00 0.13 0.00 82 1019.3
20260905153655 12 0.0 1.6 0.00 0.13 0.00 82 1019.4
20260905152616 11 0.0 0.0 0.00 0.13 0.00 83 1019.3
20260905151616 11 158 1.6 1.6 0.00 0.13 0.00 83 1019.5
20260905150616 11 158 1.6 3.2 0.00 0.13 0.00 83 1019.3
20260905145615 11 158 1.6 3.2 0.00 0.13 0.00 83 1019.1
20260905144635 11 0.0 0.0 0.00 0.13 0.00 83 1019.1
20260905143615 11 0.0 0.0 0.00 0.13 0.00 84 1019.2
20260905142636 11 0.0 0.0 0.00 0.13 0.00 84 1019.2
20260905141615 11 0.0 0.0 0.00 0.13 0.00 83 1019.2
20260905140636 11 0.0 0.0 0.00 0.13 0.00 83 1019.2
20260905135615 11 0.0 1.6 0.00 0.15 0.00 83 1019.2
20260905134615 11 0.0 1.6 0.00 0.15 0.00 83 1019.1
20260905133615 11 0.0 0.0 0.00 0.15 0.00 83 1019.1
20260905132615 11 0.0 1.6 0.00 0.15 0.00 83 1019.0
20260905131615 11 0.0 1.6 0.00 0.15 0.00 83 1018.9
20260905130658 11 0.0 0.0 0.00 0.15 0.00 83 1019.0
20260905125615 11 158 1.6 1.6 0.00 0.18 0.00 83 1018.8
20260905124635 11 0.0 1.6 0.00 0.18 0.00 83 1018.9
20260905123615 11 158 1.6 3.2 0.00 0.18 0.00 83 1018.8
20260905122615 11 0.0 1.6 0.00 0.20 0.00 83 1018.8
20260905121615 11 158 1.6 1.6 0.00 0.23 0.00 83 1018.8
20260905120615 11 0.0 0.0 0.00 0.25 0.00 83 1018.8
20260905115617 11 158 1.6 3.2 0.00 0.25 0.00 83 1018.8
20260905114637 11 158 1.6 3.2 0.00 0.25 0.00 83 1018.7
20260905113617 11 158 1.6 3.2 0.00 0.25 0.00 83 1018.5
20260905112618 11 158 1.6 1.6 0.00 0.25 0.00 83 1018.6
20260905111617 11 0.0 1.6 0.00 0.25 0.00 83 1018.5
20260905110617 11 0.0 0.0 0.00 0.25 0.00 83 1018.6
20260905105617 11 158 1.6 1.6 0.00 0.25 0.00 83 1018.5
20260905104617 11 158 1.6 3.2 0.00 0.25 0.00 83 1018.7
20260905103638 11 158 3.2 8.0 0.00 0.25 0.00 83 1018.8
20260905102617 11 135 1.6 3.2 0.00 0.25 0.00 83 1018.7
20260905101617 11 135 1.6 3.2 0.00 0.25 0.00 83 1018.6
20260905100617 11 0.0 0.0 0.00 0.25 0.00 83 1018.5
20260905095617 11 0.0 0.0 0.00 0.25 0.00 82 1018.6
20260905094617 11 0.0 0.0 0.00 0.25 0.00 82 1018.8
20260905093617 11 0.0 1.6 0.00 0.25 0.00 82 1018.8
20260905092617 11 135 3.2 4.8 0.00 0.25 0.00 81 1018.7
20260905091637 11 113 3.2 4.8 0.00 0.25 0.00 76 1018.7
20260905090617 11 0.0 1.6 0.00 0.25 0.00 75 1018.6
20260905085617 11 0.0 1.6 0.00 0.25 0.00 75 1018.6
20260905084637 11 113 1.6 3.2 0.00 0.25 0.00 76 1018.6
20260905083617 12 113 1.6 3.2 0.00 0.25 0.00 76 1018.5
20260905082616 12 113 1.6 1.6 0.00 0.25 0.00 76 1018.4
20260905081617 12 0.0 0.0 0.00 0.25 0.00 76 1018.4
20260905080636 12 0.0 1.6 0.00 0.25 0.00 76 1018.4
20260905075617 12 0.0 0.0 0.00 0.25 0.00 76 1018.4
20260905074616 12 113 1.6 1.6 0.00 0.25 0.00 76 1018.4
20260905073637 12 0.0 1.6 0.00 0.25 0.00 75 1018.3
20260905072616 12 113 1.6 1.6 0.00 0.25 0.00 75 1018.3
20260905065756 12 0.0 1.6 0.00 0.25 0.25 76 1018.1
20260905064616 12 0.0 0.0 0.00 0.25 0.25 73 1018.1
20260905063615 12 0.0 0.0 0.00 0.25 0.25 73 1018.1
20260905062636 12 0.0 1.6 0.00 0.25 0.25 71 1017.8
20260905061615 12 0.0 0.0 0.00 0.25 0.25 70 1017.8
20260905060615 12 0.0 0.0 0.00 0.25 0.25 70 1017.8
20260905055615 12 0.0 1.6 0.00 0.25 0.25 69 1017.7
20260905054615 12 113 1.6 1.6 0.00 0.25 0.25 69 1017.7
20260905053617 12 113 1.6 3.2 0.00 0.25 0.25 69 1017.7
20260905052617 12 0.0 0.0 0.00 0.25 0.25 69 1017.6
20260905051617 13 135 1.6 3.2 0.00 0.25 0.25 68 1017.5
20260905050617 13 0.0 1.6 0.00 0.25 0.25 67 1017.5
20260905045617 13 158 1.6 1.6 0.00 0.25 0.25 67 1017.4
20260905044637 13 158 1.6 4.8 0.00 0.25 0.25 67 1017.4
20260905043617 13 158 1.6 4.8 0.00 0.25 0.25 65 1017.4
20260905042619 13 158 1.6 1.6 0.00 0.25 0.25 66 1017.3
20260905041619 13 158 1.6 4.8 0.00 0.25 0.25 68 1017.3
20260905040617 13 158 1.6 4.8 0.00 0.25 0.25 68 1017.2
20260905035617 13 158 1.6 1.6 0.00 0.25 0.25 67 1017.1
20260905034636 13 158 4.8 6.4 0.00 0.25 0.25 67 1016.9
20260905033617 13 158 3.2 6.4 0.00 0.25 0.25 66 1016.8
20260905032617 13 158 3.2 3.2 0.00 0.25 0.25 65 1016.7
20260905031617 13 113 1.6 3.2 0.00 0.25 0.25 65 1016.7
20260905030617 13 113 1.6 3.2 0.00 0.25 0.25 64 1016.7
20260905025617 13 113 1.6 3.2 0.00 0.25 0.25 65 1016.6
20260905024619 14 0.0 1.6 0.00 0.25 0.25 64 1016.7
20260905023617 14 113 1.6 1.6 0.00 0.25 0.25 63 1016.7
20260905022617 15 113 1.6 3.2 0.00 0.25 0.25 63 1016.7
20260905021616 15 0.0 1.6 0.00 0.25 0.25 62 1016.8
20260905020617 15 0.0 0.0 0.00 0.25 0.25 61 1016.7
20260905015617 16 0.0 1.6 0.00 0.25 0.25 60 1016.5
20260905014617 16 0.0 0.0 0.00 0.25 0.25 58 1016.4
20260905013616 16 0.0 0.0 0.00 0.25 0.25 58 1016.4
20260905012617 17 0.0 3.2 0.00 0.25 0.25 57 1016.3
20260905011616 16 135 1.6 3.2 0.00 0.25 0.25 57 1016.2
20260905010616 16 113 3.2 4.8 0.00 0.25 0.25 59 1016.1
20260905005617 16 158 1.6 3.2 0.00 0.25 0.25 59 1016.1
20260905004617 16 113 3.2 4.8 0.00 0.25 0.25 61 1016.1
20260905003616 15 113 3.2 4.8 0.00 0.25 0.25 66 1016.1
20260905002617 15 158 4.8 6.4 0.00 0.25 0.25 66 1016.1
20260905001617 15 0.0 1.6 0.00 0.25 0.25 68 1016.0
20260905000617 15 113 3.2 4.8 0.00 0.25 0.25 68 1015.9
20260904235616 15 0.0 3.2 0.03 0.25 0.25 68 1015.9
20260904234617 14 90 1.6 3.2 0.03 0.25 0.25 70 1015.9
20260904233616 14 0.0 1.6 0.05 0.28 0.25 70 1015.9
20260904232616 14 158 1.6 3.2 0.05 0.30 0.25 71 1015.9
20260904231616 14 0.0 1.6 0.08 0.33 0.25 72 1015.9
20260904230617 14 0.0 0.0 0.08 0.33 0.25 72 1015.9
20260904225616 13 0.0 1.6 0.08 0.30 0.23 69 1015.9
20260904224616 13 158 3.2 4.8 0.10 0.30 0.23 66 1015.9
20260904223616 14 158 3.2 6.4 0.08 0.28 0.20 65 1015.9
20260904222616 14 158 4.8 8.0 0.08 0.28 0.20 64 1016.0
20260904221616 15 180 3.2 4.8 0.05 0.25 0.18 64 1015.8
20260904220616 15 203 4.8 8.0 0.05 0.25 0.18 61 1015.7
20260904215616 17 135 6.4 14.5 0.03 0.23 0.15 56 1015.7
20260904214616 20 180 6.4 11.3 0.00 0.20 0.13 43 1015.4
20260904213656 20 225 1.6 3.2 0.00 0.20 0.13 37 1015.1
20260904212636 21 158 1.6 3.2 0.00 0.20 0.13 37 1014.9
20260904211616 21 225 3.2 4.8 0.00 0.20 0.13 38 1014.8
20260904210616 20 270 4.8 8.0 0.00 0.20 0.13 43 1014.7
20260904205616 20 248 8.0 11.3 0.00 0.20 0.13 43 1014.7
20260904204616 20 225 3.2 4.8 0.00 0.20 0.13 41 1014.7
20260904203616 20 293 4.8 6.4 0.00 0.20 0.13 40 1014.6
20260904202616 21 293 6.4 8.0 0.00 0.20 0.13 41 1014.7
20260904201616 20 338 4.8 6.4 0.00 0.20 0.13 44 1014.8
20260904200616 20 338 4.8 8.0 0.00 0.20 0.13 44 1014.9
20260904195616 20 0 1.6 3.2 0.00 0.20 0.13 43 1015.0
20260904194616 20 293 4.8 6.4 0.00 0.20 0.13 44 1015.1
20260904193616 20 338 4.8 6.4 0.00 0.20 0.13 51 1015.1
20260904192636 18 270 1.6 4.8 0.00 0.20 0.13 48 1015.1
20260904191616 19 315 3.2 4.8 0.00 0.20 0.13 49 1015.3
20260904190616 19 338 1.6 3.2 0.00 0.20 0.13 55 1015.5
20260904185616 19 315 1.6 3.2 0.00 0.25 0.13 55 1015.4
20260904184616 18 315 3.2 3.2 0.00 0.46 0.13 60 1015.4
20260904183636 17 0.0 1.6 0.00 0.46 0.13 60 1015.3
20260904182616 17 293 1.6 3.2 0.00 0.46 0.13 64 1015.3
20260904181616 17 113 3.2 4.8 0.00 0.46 0.13 60 1015.3
20260904180616 16 0 1.6 3.2 0.00 0.46 0.13 68 1015.2
20260904175616 16 68 1.6 3.2 0.00 0.46 0.13 68 1015.1